Simultaneous Nadir Overpasses (SNOs) Predictions

Prediction of SNOs between NOAA-15 and METOP-C Satellite Orbit:

Table of predicted SNOs for the next 14.0 days since TLE Epoch: 6/13/2023
Index Date (NOAA-15) Time (NOAA-15) Lat,Lon (NOAA-15) SZA (NOAA-15 ) Date (METOP-C) Time (METOP-C) Lat,Lon (METOP-C) SZA (METOP-C ) Distance(km) Time Diff (sec)
1 06/26/2023 23:52:31 81.09,-139.87 59.69 06/26/2023 23:51:21 81.08,-139.82 59.66 1.08 70
2 06/27/2023 00:43:03 -81.09, 27.43 120.32 06/27/2023 00:42:03 -81.08, 27.54 120.34 2.16 60
3 06/27/2023 01:33:32 81.09,-165.14 59.69 06/27/2023 01:32:42 81.09,-164.98 59.68 2.68 50
4 06/27/2023 02:24:03 -81.08, 2.52 120.30 06/27/2023 02:23:24 -81.09, 2.37 120.32 2.91 39



Historial Predications of SNOs between NOAA-15 and METOP-C
